Weather History for Fortuna, CA

Change the Weather History Date:

Monday, August 26, 2013

  Actual Average (KEKA) Record (KEKA)
Temperature  
Mean Temperature 60 °F 59 °F  
Max Temperature 73 °F 65 °F 77 °F (1894)
Min Temperature 48 °F 53 °F 46 °F (1895)
Degree Days  
Heating Degree Days 4 6  
Month to date heating degree days 162  
Since 1 June heating degree days 654  
Since 1 July heating degree days 388  
Cooling Degree Days 0 0  
Month to date cooling degree days 0  
Year to date cooling degree days 0  
Since 1 June cooling degree days 0  
Growing Degree Days 10 (Base 50)    
Moisture  
Dew Point 53 °F    
Average Humidity 78    
Maximum Humidity 100    
Minimum Humidity 41    
Precipitation  
Precipitation 0.00 in 0.02 in 0.47 in (1997)
Month to date precipitation 0.24  
Year to date precipitation 23.70  
Since 1 July precipitation 0.42  
Snow  
Snow 0.00 in 0.00 in - ()
Month to date snowfall 0.0  
Since 1 June snowfall 0.0  
Since 1 July snowfall 0.0  
Snow Depth -    
Sea Level Pressure  
Sea Level Pressure 30.01 in    
Wind  
Wind Speed 6 mph (SW)    
Max Wind Speed 20 mph    
Max Gust Speed 23 mph    
Visibility 8 miles    
Events      
T = Trace of Precipitation, MM = Missing Value Source: NWS Daily Summary

Daily Weather History Graph

Daily Weather History Graph

Search for Another Location

Airport:

Trip Planner

Search our weather history database for the weather conditions in past years. The results will help you decide how hot, cold, wet, or windy it might be!

Date:

Astronomy

Aug. 26, 2013 Rise Set
Actual Time 6:38 AM PDT 7:57 PM PDT
Civil Twilight 6:09 AM PDT 8:25 PM PDT
Nautical Twilight 5:35 AM PDT 8:59 PM PDT
Astronomical Twilight 4:59 AM PDT 9:35 PM PDT
Moon 11:10 PM PDT (8/26) 12:47 PM PDT (8/26)
Length of Visible Light 14h 15m
Length of Day
13h 19m
Waning Gibbous, 65% of the Moon is Illuminated
Aug 26
Waning Gibbous
Aug 28
Last Quarter
Sep 5
New
Sep 12
First Quarter
Sep 19
Full

Hourly Weather History & Observations

Time (PDT) Temp. Dew Point Humidity Pressure Visibility Wind Dir Wind Speed Gust Speed Precip Events Conditions
12:15 AM 53.6 °F 53.6 °F 100% 29.98 in 0.2 mi Calm Calm - N/A   Overcast
12:35 AM 53.6 °F 53.6 °F 100% 29.98 in 0.2 mi Calm Calm - N/A   Overcast
12:55 AM 53.6 °F 53.6 °F 100% 29.98 in 0.2 mi SSE 3.5 mph - N/A   Overcast
1:15 AM 53.6 °F 53.6 °F 100% 29.98 in 0.2 mi ESE 3.5 mph - N/A   Overcast
1:35 AM 53.6 °F 53.6 °F 100% 29.98 in 0.2 mi SSE 3.5 mph - N/A   Overcast
1:55 AM 53.6 °F 53.6 °F 100% 29.98 in 0.2 mi South 3.5 mph - N/A   Overcast
2:15 AM 53.6 °F 53.6 °F 100% 29.98 in 0.2 mi SSE 3.5 mph - N/A   Overcast
2:35 AM 53.6 °F 53.6 °F 100% 29.98 in 0.2 mi Calm Calm - N/A   Overcast
2:55 AM 51.8 °F 51.8 °F 100% 29.98 in 0.2 mi Calm Calm - N/A   Overcast
3:15 AM 51.8 °F 51.8 °F 100% 29.99 in 0.2 mi SSE 4.6 mph - N/A   Overcast
3:35 AM 50.0 °F 50.0 °F 100% 29.99 in 0.2 mi SSE 6.9 mph - N/A   Overcast
3:55 AM 50.0 °F 50.0 °F 100% 29.99 in 0.2 mi SSE 4.6 mph - N/A   Overcast
4:15 AM 50.0 °F 50.0 °F 100% 29.99 in 0.2 mi SE 5.8 mph - N/A   Overcast
4:35 AM 50.0 °F 50.0 °F 100% 29.99 in 0.2 mi SE 5.8 mph - N/A   Mostly Cloudy
4:55 AM 50.0 °F 50.0 °F 100% 29.99 in 0.2 mi SE 6.9 mph - N/A   Unknown
5:15 AM 50.0 °F 50.0 °F 100% 29.99 in 6.0 mi SE 6.9 mph - N/A   Clear
5:35 AM 50.0 °F 50.0 °F 100% 29.99 in 10.0 mi SE 6.9 mph - N/A   Clear
5:55 AM 50.0 °F 50.0 °F 100% 30.00 in 8.0 mi SE 5.8 mph - N/A   Clear
6:15 AM 48.2 °F 48.2 °F 100% 30.00 in 1.5 mi SE 8.1 mph - N/A   Clear
6:35 AM 50.0 °F 50.0 °F 100% 30.00 in 10.0 mi SE 8.1 mph - N/A   Clear
6:55 AM 50.0 °F 50.0 °F 100% 30.01 in 10.0 mi SSE 6.9 mph - N/A   Clear
7:15 AM 50.0 °F 50.0 °F 100% 30.02 in 8.0 mi SE 8.1 mph - N/A   Clear
7:35 AM 50.0 °F 50.0 °F 100% 30.02 in 10.0 mi SE 8.1 mph - N/A   Clear
7:55 AM 50.0 °F 50.0 °F 100% 30.03 in 10.0 mi SE 6.9 mph - N/A   Clear
8:15 AM 53.6 °F 53.6 °F 100% 30.03 in 10.0 mi SE 6.9 mph - N/A   Clear
8:35 AM 55.4 °F 53.6 °F 94% 30.03 in 10.0 mi SE 5.8 mph - N/A   Clear
8:55 AM 57.2 °F 53.6 °F 88% 30.03 in 10.0 mi SE 5.8 mph - N/A   Clear
9:15 AM 59.0 °F 53.6 °F 82% 30.03 in 10.0 mi SSE 4.6 mph - N/A   Clear
9:35 AM 60.8 °F 53.6 °F 77% 30.03 in 10.0 mi SSE 4.6 mph - N/A   Clear
9:55 AM 64.4 °F 53.6 °F 68% 30.04 in 10.0 mi SSE 3.5 mph - N/A   Clear
10:15 AM 66.2 °F 50.0 °F 56% 30.04 in 10.0 mi Calm Calm - N/A   Clear
10:35 AM 68.0 °F 48.2 °F 49% 30.04 in 10.0 mi Calm Calm - N/A   Clear
10:55 AM 68.0 °F 48.2 °F 49% 30.04 in 10.0 mi SE 4.6 mph - N/A   Clear
11:15 AM 69.8 °F 48.2 °F 46% 30.04 in 10.0 mi WNW 6.9 mph - N/A   Clear
11:35 AM 69.8 °F 50.0 °F 49% 30.04 in 10.0 mi WNW 6.9 mph - N/A   Clear
11:55 AM 71.6 °F 50.0 °F 46% 30.03 in 10.0 mi North 5.8 mph - N/A   Clear
12:15 PM 71.6 °F 50.0 °F 46% 30.03 in 10.0 mi WNW 9.2 mph - N/A   Clear
12:35 PM 73.4 °F 53.6 °F 50% 30.03 in 10.0 mi NNW 10.4 mph - N/A   Clear
12:55 PM 71.6 °F 53.6 °F 53% 30.03 in 10.0 mi NW 13.8 mph - N/A   Clear
1:15 PM 71.6 °F 50.0 °F 46% 30.02 in 10.0 mi NNW 15.0 mph 18.4 mph N/A   Clear
1:35 PM 73.4 °F 48.2 °F 41% 30.02 in 10.0 mi NNW 15.0 mph - N/A   Clear
1:55 PM 73.4 °F 48.2 °F 41% 30.02 in 10.0 mi NNW 15.0 mph - N/A   Clear
2:15 PM 73.4 °F 50.0 °F 44% 30.02 in 10.0 mi NNW 17.3 mph - N/A   Clear
2:35 PM 73.4 °F 50.0 °F 44% 30.02 in 10.0 mi NNW 17.3 mph - N/A   Clear
2:55 PM 73.4 °F 50.0 °F 44% 30.02 in 10.0 mi North 17.3 mph 23.0 mph N/A   Clear
3:15 PM 73.4 °F 50.0 °F 44% 30.01 in 10.0 mi NNW 18.4 mph - N/A   Clear
3:35 PM 73.4 °F 48.2 °F 41% 30.01 in 10.0 mi NNW 18.4 mph 21.9 mph N/A   Clear
3:55 PM 71.6 °F 50.0 °F 46% 30.01 in 10.0 mi NNW 19.6 mph - N/A   Clear
4:15 PM 71.6 °F 50.0 °F 46% 30.01 in 10.0 mi NNW 18.4 mph - N/A   Clear
4:35 PM 71.6 °F 50.0 °F 46% 30.01 in 10.0 mi North 17.3 mph - N/A   Clear
4:55 PM 71.6 °F 53.6 °F 53% 30.02 in 10.0 mi NNW 15.0 mph - N/A   Clear
5:15 PM 71.6 °F 53.6 °F 53% 30.01 in 10.0 mi NNW 13.8 mph - N/A   Clear
5:35 PM 69.8 °F 53.6 °F 56% 30.01 in 10.0 mi NNW 12.7 mph - N/A   Clear
5:55 PM 69.8 °F 55.4 °F 60% 30.01 in 10.0 mi NW 12.7 mph - N/A   Clear
6:15 PM 68.0 °F 55.4 °F 64% 30.01 in 10.0 mi NW 11.5 mph - N/A   Clear
6:35 PM 68.0 °F 55.4 °F 64% 30.01 in 10.0 mi NW 10.4 mph - N/A   Clear
6:55 PM 66.2 °F 57.2 °F 73% 30.01 in 10.0 mi WNW 9.2 mph - N/A   Clear
7:15 PM 66.2 °F 57.2 °F 73% 30.00 in 10.0 mi NW 10.4 mph - N/A   Clear
7:35 PM 64.4 °F 57.2 °F 77% 30.01 in 10.0 mi WNW 9.2 mph - N/A   Clear
7:55 PM 62.6 °F 57.2 °F 82% 30.01 in 10.0 mi WNW 6.9 mph - N/A   Clear
8:15 PM 60.8 °F 57.2 °F 88% 30.01 in 10.0 mi WNW 8.1 mph - N/A   Clear
8:35 PM 59.0 °F 57.2 °F 94% 30.01 in 10.0 mi WNW 8.1 mph - N/A   Clear
8:55 PM 59.0 °F 57.2 °F 94% 30.01 in 10.0 mi NW 4.6 mph - N/A   Clear
9:15 PM 59.0 °F 57.2 °F 94% 30.01 in 10.0 mi West 3.5 mph - N/A   Clear
9:35 PM 59.0 °F 57.2 °F 94% 30.00 in 10.0 mi WNW 5.8 mph - N/A   Clear
9:55 PM 59.0 °F 57.2 °F 94% 30.00 in 10.0 mi Calm Calm - N/A   Clear
10:15 PM 59.0 °F 57.2 °F 94% 30.00 in 10.0 mi Calm Calm - N/A   Clear
10:35 PM 59.0 °F 57.2 °F 94% 30.00 in 10.0 mi Calm Calm - N/A   Clear
10:55 PM 57.2 °F 57.2 °F 100% 29.99 in 10.0 mi SE 3.5 mph - N/A   Clear
11:15 PM 57.2 °F 57.2 °F 100% 29.99 in 10.0 mi SE 3.5 mph - N/A   Clear
11:35 PM 57.2 °F 55.4 °F 94% 29.99 in 10.0 mi ESE 4.6 mph - N/A   Clear
11:55 PM 57.2 °F 55.4 °F 94% 29.99 in 10.0 mi SSE 3.5 mph - N/A   Clear